Regional Weather Roundup
Issued by NWS

Home | Current Version | Previous Version | Text Only | Print | Product List | Glossary Off
Versions: 1 2 3 4 5 6 7 8 9 10 11 12 13 14 15 16 17 18 19 20 21 22 23 24 25 26 27 28 29 30 31 32 33 34 35 36 37 38 39 40 41 42 43 44 45 46 47 48 49 50

000
ASUS43 KOAX 260402
RWRNE

WEATHER ROUNDUP FOR NEBRASKA
NATIONAL WEATHER SERVICE OMAHA NE
1000 PM CST SUN FEB 25 2018

NOTES: SATELLITE DATA IS BEING USED TO AUGMENT CLOUD COVER ABOVE
       12000 FEET.
       "FAIR" INDICATES FEW OR NO CLOUDS BELOW 12,000 FEET WITH NO
       SIGNIFICANT WEATHER AND/OR OBSTRUCTIONS TO VISIBILITY.


NEZ001>004-019>022-054>056-260500-
NEBRASKA PANHANDLE

CITY           SKY/WX    TMP DP  RH WIND       PRES   REMARKS
SCOTTSBLUFF    CLEAR     31  12  45 W16       29.94S WCI  20
ALLIANCE       CLEAR     21  12  68 W9        29.93R WCI  11
CHADRON        CLEAR     27  13  55 W14       29.91R WCI  16
GORDON         FAIR      23  12  62 W8        29.90R WCI  14
KIMBALL        PTCLDY    17   8  67 W3        29.95R
SIDNEY         CLEAR     17   9  70 VRB3      29.96S
$$

NEZ057>060-069>072-079>082-260500-
SOUTHWEST NEBRASKA

CITY           SKY/WX    TMP DP  RH WIND       PRES   REMARKS
NORTH PLATTE   CLEAR     21  17  84 CALM      30.01R
IMPERIAL       CLEAR     26  19  74 S3        30.02R
LEXINGTON      CLEAR     30  23  75 CALM      30.03R
MCCOOK         CLEAR     27  18  69 SW8       30.04R WCI  19
OGALLALA       CLEAR     25  20  81 CALM      30.00R
$$

NEZ005>010-023>029-035>040-094-260500-
NORTH CENTRAL NEBRASKA

CITY           SKY/WX    TMP DP  RH WIND       PRES   REMARKS
VALENTINE      CLEAR     21  12  68 W3        29.92R
AINSWORTH      CLEAR     23  17  75 SW12      29.94R WCI  12
BROKEN BOW     CLEAR     19  14  81 CALM      29.99R
O`NEILL        CLEAR     20  16  83 SW7       29.97S WCI  11
ORD            CLEAR     26  21  81 SW3       29.99S
THEDFORD         N/A     25  17  69 CALM      29.97R
$$

NEZ041-046>049-061>064-073>077-083>087-260500-
SOUTH CENTRAL NEBRASKA

CITY           SKY/WX    TMP DP  RH WIND       PRES   REMARKS
GRAND ISLAND   CLEAR     31  20  63 SW7       30.03R WCI  24
AURORA         CLEAR     30  20  64 W3        30.03R
HASTINGS       CLEAR     27  17  66 CALM      30.03R
HEBRON         CLEAR     32  18  57 CALM      30.06S
HOLDREGE       CLEAR     33  16  49 SW9       30.03R WCI  25
KEARNEY        CLEAR     28  20  71 W5        30.04R WCI  23
YORK           CLEAR     30  23  74 CALM      30.04S
$$

NEZ011>018-030>034-042>045-260500-
NORTHEAST NEBRASKA

CITY           SKY/WX    TMP DP  RH WIND       PRES   REMARKS
NORFOLK        CLEAR     27  23  85 S8        30.00R WCI  19
ALBION         CLEAR     31  22  71 CALM      30.01R
BLAIR          CLEAR     35  28  76 SW7       30.04R WCI  29
COLUMBUS       CLEAR     21  18  88 CALM      30.04R
FREMONT        CLEAR     27  24  91 SE3       30.04S
TEKAMAH        CLEAR     25  22  88 W3        30.04R
WAYNE          CLEAR     28  22  79 S3        30.01S
$$

NEZ050>053-065>068-078-088>093-260500-
SOUTHEAST NEBRASKA

CITY           SKY/WX    TMP DP  RH WIND       PRES   REMARKS
LINCOLN        PTCLDY    31  24  75 CALM      30.07R
OMAHA EPPLEY   CLEAR     31  25  78 SE6       30.06R WCI  25
BEATRICE       CLEAR     35  22  58 CALM      30.07S
NEBRASKA CITY  CLEAR     33  26  78 SW8       30.08R WCI  25
PLATTSMOUTH    MOCLDY    35  27  73 S9        30.06R WCI  28
$$

NEZ044-045-051>053-067-260500-
OMAHA AREA

CITY           SKY/WX    TMP DP  RH WIND       PRES   REMARKS
OMAHA EPPLEY   CLEAR     31  25  78 SE6       30.06R WCI  25
BLAIR          CLEAR     35  28  76 SW7       30.04R WCI  29
FREMONT        CLEAR     27  24  91 SE3       30.04S
MILLARD        CLEAR     35  28  75 SW3       30.06R
OFFUTT AFB     CLEAR     30  25  83 CALM      30.05R
PLATTSMOUTH    MOCLDY    35  27  73 S9        30.06R WCI  28
WAHOO          FAIR      30  26  85 SW6       30.05S WCI  24
$$



USA.gov is the U.S. government's official web portal to all federal, state and local government web resources and services.